[[{"header":{"parameterUnit":"m.s-1","parameterCategory":1,"la1":30.2991,"la2":30.254,"lo1":-89.0895,"lo2":-89.0444,"dy":0.0017,"dx":0.0017,"nx":28,"ny":28,"refTime":"2024-12-01T09:00:00:Z","depth":0,"parameterNumber":2,"parameterNumberName":"U-component_of_WINDS"},"data":[0,0,0,0,0,0,0,0,0,0,0,0,0,0,0,0,0,0,0,0,0,0,0,0,0,0,0,0,0,0,0,0,0,0,0,0,0,0,0,0,0,0,0,0,0,0,0,0,0,0,0,0,0,0,0,0,0,0,-0.019,-0.019,0,-0.0193,-0.0193,-0.0193,-0.02,-0.02,-0.02,-0.02,-0.0202,-0.0202,-0.0202,0,0,0,0,0,0,0,0,0,0,0,0,0,-0.019,-0.0189,-0.019,-0.019,-0.019,-0.0193,-0.0193,-0.0193,-0.02,-0.02,-0.02,-0.02,-0.0202,-0.0202,-0.0202,0,0,0,0,0,0,0,0,0,0,0,0,0,-0.0191,-0.0189,-0.019,-0.0194,-0.0194,-0.0193,-0.0193,-0.0193,-0.02,-0.02,-0.02,-0.02,-0.0202,-0.0202,-0.0202,-0.0197,0,0,-0.0201,-0.0201,0,0,0,0,0,0,0,0,-0.0191,-0.0191,-0.0193,-0.0194,-0.0194,-0.0196,-0.0193,-0.0194,-0.02,-0.0198,-0.02,-0.02,-0.02,-0.02,-0.02,-0.0197,-0.0197,-0.0201,-0.0201,-0.0201,-0.0201,0,0,0,0,0,0,0,-0.0191,-0.0191,-0.0191,-0.0193,-0.0194,-0.0195,-0.0195,-0.0194,-0.0197,-0.0198,-0.0198,-0.0199,-0.02,-0.02,-0.02,-0.0197,-0.0201,-0.0201,-0.0201,-0.0201,-0.0188,-0.0188,0,0,0,0,0,0,-0.019,-0.0191,-0.0191,-0.0191,-0.0193,-0.0195,-0.0195,-0.0195,-0.0198,-0.0198,-0.0198,-0.0199,-0.02,-0.02,-0.02,-0.0194,-0.0201,-0.0201,-0.0201,-0.0189,-0.0188,-0.0188,0,0,0,0,0,0,-0.019,-0.019,-0.0191,-0.0191,-0.0191,-0.0195,-0.0195,-0.0195,-0.0195,-0.0198,-0.0199,-0.0198,-0.02,-0.02,-0.0197,-0.0194,-0.0201,-0.0201,-0.0189,-0.0188,-0.0188,-0.0181,0,0,0,0,0,0,-0.019,-0.019,-0.0189,-0.0191,-0.0191,-0.0189,-0.0194,-0.0195,-0.0195,-0.0196,-0.0198,-0.0198,-0.0201,-0.0197,-0.0197,-0.0194,-0.0201,-0.0189,-0.0189,-0.0188,-0.0182,-0.0181,-0.018,0,0,0,0,0,-0.019,-0.0187,-0.0188,-0.0189,-0.019,-0.0189,-0.0189,-0.0192,-0.0195,-0.0193,-0.0195,-0.0198,-0.0194,-0.0197,-0.0197,-0.0193,-0.0189,-0.0189,-0.0188,-0.0182,-0.0181,-0.018,0,0,0,0,0,0,-0.0184,-0.0187,-0.0189,-0.0187,-0.0187,-0.019,-0.0188,-0.019,-0.019,-0.0191,-0.0194,-0.0195,-0.0191,-0.0192,-0.0195,-0.0188,-0.0192,-0.0192,-0.0188,-0.0186,-0.0185,-0.0186,-0.0201,0,0,0,0,0,-0.0182,-0.0181,-0.0184,-0.0181,-0.0182,-0.0184,-0.0184,-0.0186,-0.0187,-0.0187,-0.0189,-0.0189,-0.0188,-0.0187,-0.0186,-0.0181,-0.0182,-0.0179,-0.0178,-0.0177,-0.0177,-0.0173,-0.0172,-0.0186,-0.0186,-0.0186,0,0,-0.0179,-0.018,-0.018,-0.018,-0.0181,-0.018,-0.0185,-0.0183,-0.0182,-0.0187,-0.0185,-0.0185,-0.0186,-0.0182,-0.018,-0.0182,-0.0172,-0.0176,-0.0175,-0.0176,-0.0173,-0.0171,-0.017,-0.0186,-0.0186,-0.0186,0,0,-0.0172,-0.0173,-0.0171,-0.0171,-0.0172,-0.0174,-0.0173,-0.0175,-0.0176,-0.0173,-0.0177,-0.0175,-0.0173,-0.0173,-0.0173,-0.0164,-0.0167,-0.0164,-0.0158,-0.0155,-0.0154,-0.0153,-0.015,-0.0149,-0.0163,-0.0163,-0.0163,0,-0.0167,-0.0166,-0.0169,-0.0167,-0.0167,-0.0171,-0.0169,-0.0169,-0.0169,-0.0169,-0.0171,-0.0168,-0.0169,-0.0165,-0.0162,-0.0162,-0.0161,-0.0164,-0.0154,-0.0153,-0.0152,-0.0149,-0.0148,-0.0163,-0.0163,-0.0163,-0.0163,0,-0.016,-0.0159,-0.0157,-0.0157,-0.0157,-0.0155,-0.0157,-0.0156,-0.0157,-0.0159,-0.0155,-0.0156,-0.0155,-0.0154,-0.0156,-0.0149,-0.0151,-0.0154,-0.0158,-0.0151,-0.0148,-0.0147,-0.0162,-0.0162,-0.0162,-0.0162,0,0,-0.0151,-0.0152,-0.0151,-0.0151,-0.0152,-0.0151,-0.0148,-0.0147,-0.0146,-0.0146,-0.0143,-0.0141,-0.0143,-0.0143,-0.0144,-0.0142,-0.0134,-0.0145,-0.0145,-0.0143,-0.0127,-0.0125,-0.0124,-0.0136,-0.0136,-0.0136,-0.0127,0,-0.0144,-0.0141,-0.0143,-0.0138,-0.0137,-0.014,-0.0138,-0.0137,-0.0138,-0.0136,-0.0137,-0.0135,-0.0138,-0.0138,-0.0135,-0.0136,-0.0131,-0.0137,-0.0134,-0.0133,-0.0134,-0.0123,-0.0121,-0.0113,-0.0126,-0.0126,-0.0126,0,-0.0137,-0.0136,-0.0132,-0.0132,-0.0131,-0.0129,-0.0128,-0.0126,-0.0126,-0.0126,-0.0125,-0.0127,-0.0124,-0.0128,-0.0123,-0.0126,-0.0125,-0.0125,-0.0125,-0.0125,-0.013,-0.0123,-0.011,-0.0109,-0.0124,-0.0124,-0.0124,0,-0.013,-0.0128,-0.0125,-0.0125,-0.0125,-0.0123,-0.0123,-0.0123,-0.0122,-0.012,-0.012,-0.0118,-0.0117,-0.0115,-0.0116,-0.0119,-0.0111,-0.0115,-0.0111,-0.0111,-0.011,-0.011,-0.0097,-0.0108,-0.0108,-0.0108,-0.0108,0,-0.0123,-0.012,-0.0122,-0.012,-0.0117,-0.0119,-0.0115,-0.0115,-0.0114,-0.0112,-0.0114,-0.0112,-0.0113,-0.0111,-0.0111,-0.0107,-0.0107,-0.0107,-0.0107,-0.0107,-0.0107,-0.0106,-0.0107,-0.0108,-0.0108,-0.0108,-0.0108,0,-0.0116,-0.0117,-0.0114,-0.0114,-0.0114,-0.0111,-0.0111,-0.0109,-0.0109,-0.0106,-0.0105,-0.0106,-0.0103,-0.0104,-0.01,-0.0101,-0.0095,-0.0096,-0.0096,-0.0096,-0.0092,-0.0092,-0.0079,-0.0077,-0.0089,-0.0089,-0.0089,0,-0.0112,-0.0109,-0.0109,-0.0108,-0.0107,-0.0105,-0.0104,-0.0105,-0.0104,-0.0102,-0.01,-0.0097,-0.0095,-0.009,-0.009,-0.0087,-0.0088,-0.0084,-0.0088,-0.0088,-0.0088,-0.0089,-0.0088,-0.0083,-0.0083,-0.0083,-0.0083,0,-0.0104,-0.0104,-0.0102,-0.0101,-0.0099,-0.0098,-0.0097,-0.0095,-0.0096,-0.0094,-0.0091,-0.009,-0.0086,-0.0083,-0.008,-0.008,-0.0081,-0.0081,-0.008,-0.008,-0.008,-0.008,-0.0094,-0.0082,-0.0082,-0.0082,-0.0082,-0.0082,-0.0098,-0.0096,-0.0095,-0.0093,-0.0092,-0.009,-0.0088,-0.0088,-0.0086,-0.0083,-0.0084,-0.008,-0.0078,-0.0075,-0.0074,-0.007,-0.0072,-0.0071,-0.007,-0.007,-0.007,-0.008,-0.007,-0.007,-0.007,-0.007,-0.007,0,-0.009,-0.009,-0.0088,-0.0086,-0.0084,-0.0085,-0.0083,-0.0081,-0.0079,-0.0077,-0.0075,-0.0071,-0.0067,-0.0066,-0.0063,-0.0061,-0.0061,-0.006,-0.006,-0.006,-0.0068,-0.007,-0.006,-0.006,-0.006,-0.006,-0.006,-0.006,-0.0086,-0.0083,-0.0083,-0.0078,-0.0077,-0.0074,-0.0073,-0.0071,-0.007,-0.0066,-0.0063,-0.0062,-0.0061,-0.0057,-0.0054,-0.0054,-0.0052,-0.0051,-0.0051,-0.0059,-0.006,-0.0061,-0.0062,-0.005,-0.005,-0.0043,-0.0043,-0.0043]},{"header":{"parameterUnit":"m.s-1","parameterCategory":1,"la1":30.2991,"la2":30.254,"lo1":-89.0895,"lo2":-89.0444,"dy":0.0017,"dx":0.0017,"nx":28,"ny":28,"refTime":"2024-12-01T09:00:00:Z","depth":0,"parameterNumber":3,"parameterNumberName":"V-component_of_WINDS"},"data":[0,0,0,0,0,0,0,0,0,0,0,0,0,0,0,0,0,0,0,0,0,0,0,0,0,0,0,0,0,0,0,0,0,0,0,0,0,0,0,0,0,0,0,0,0,0,0,0,0,0,0,0,0,0,0,0,0,0,-2.0194,-2.0195,0,-2.0299,-2.0301,-2.0302,-2.0353,-2.0353,-2.0353,-2.0353,-2.0458,-2.046,-2.0463,0,0,0,0,0,0,0,0,0,0,0,0,0,-2.0035,-2.0038,-2.0194,-2.0195,-2.0197,-2.0299,-2.0301,-2.0302,-2.0353,-2.0353,-2.0353,-2.0353,-2.0457,-2.046,-2.0463,0,0,0,0,0,0,0,0,0,0,0,0,0,-2.0119,-2.0039,-2.0194,-2.0235,-2.0239,-2.0299,-2.0301,-2.0302,-2.0353,-2.0353,-2.0353,-2.0353,-2.0456,-2.046,-2.0464,-2.049,0,0,-2.0477,-2.0478,0,0,0,0,0,0,0,0,-2.0114,-2.0124,-2.0227,-2.0232,-2.0237,-2.0313,-2.0283,-2.0365,-2.0353,-2.031,-2.0353,-2.0353,-2.0409,-2.0417,-2.0437,-2.0495,-2.0499,-2.0477,-2.048,-2.0481,-2.0483,0,0,0,0,0,0,0,-2.0108,-2.012,-2.0236,-2.0229,-2.0235,-2.0247,-2.0259,-2.0299,-2.0358,-2.0313,-2.0317,-2.0329,-2.0412,-2.0433,-2.044,-2.0501,-2.0477,-2.0481,-2.0483,-2.0485,-2.0586,-2.0586,0,0,0,0,0,0,-2.0096,-2.0115,-2.0232,-2.0239,-2.0174,-2.025,-2.0263,-2.0289,-2.0358,-2.0369,-2.0329,-2.0331,-2.0426,-2.0435,-2.0444,-2.048,-2.0481,-2.0485,-2.0488,-2.0586,-2.0586,-2.0586,0,0,0,0,0,0,-2.0092,-2.0106,-2.0228,-2.0178,-2.0195,-2.0253,-2.0281,-2.0291,-2.0312,-2.037,-2.038,-2.034,-2.0426,-2.0438,-2.0479,-2.0484,-2.0487,-2.0491,-2.0586,-2.0586,-2.0586,-2.0551,0,0,0,0,0,0,-2.0088,-2.0104,-2.0115,-2.0178,-2.0197,-2.0262,-2.0281,-2.0293,-2.0319,-2.0323,-2.0383,-2.0392,-2.0427,-2.0472,-2.0483,-2.049,-2.0494,-2.0586,-2.0586,-2.0586,-2.0552,-2.055,-2.0548,0,0,0,0,0,-2.0082,-2.01,-2.0116,-2.013,-2.0212,-2.0262,-2.0273,-2.0313,-2.0319,-2.0331,-2.0368,-2.0391,-2.0481,-2.0476,-2.0488,-2.0496,-2.0585,-2.0586,-2.0586,-2.0553,-2.055,-2.0548,0,0,0,0,0,0,-2.0036,-2.0109,-2.0127,-2.0167,-2.0208,-2.027,-2.0286,-2.0309,-2.0348,-2.035,-2.0397,-2.041,-2.0447,-2.0476,-2.0468,-2.0526,-2.0536,-2.0538,-2.0506,-2.0504,-2.0502,-2.0494,-2.0498,0,0,0,0,0,-2.003,-2.0065,-2.0127,-2.0156,-2.0176,-2.0227,-2.025,-2.0278,-2.0322,-2.0339,-2.038,-2.0421,-2.0459,-2.0483,-2.0521,-2.0556,-2.057,-2.0568,-2.0566,-2.0564,-2.0566,-2.0588,-2.0588,-2.0588,-2.0588,-2.0588,0,0,-2.0019,-2.0064,-2.0083,-2.0148,-2.0183,-2.0218,-2.0242,-2.0277,-2.0303,-2.0345,-2.0386,-2.0417,-2.0466,-2.0504,-2.0523,-2.0529,-2.057,-2.0565,-2.0563,-2.0566,-2.0588,-2.0588,-2.0588,-2.0588,-2.0588,-2.0588,0,0,-2.0017,-2.0054,-2.0082,-2.0117,-2.0171,-2.0205,-2.0212,-2.0271,-2.0294,-2.0336,-2.0368,-2.04,-2.0464,-2.0498,-2.0524,-2.0535,-2.0557,-2.0546,-2.0536,-2.0557,-2.0557,-2.0557,-2.0561,-2.0562,-2.0548,-2.0547,-2.0547,0,-1.9996,-2.005,-2.0094,-2.0128,-2.0156,-2.0196,-2.0225,-2.0257,-2.0319,-2.0337,-2.0344,-2.0426,-2.0462,-2.0509,-2.0512,-2.0531,-2.054,-2.0539,-2.0553,-2.0554,-2.0555,-2.0559,-2.0561,-2.0546,-2.0546,-2.0546,-2.0546,0,-2.0022,-2.0059,-2.0076,-2.0137,-2.0166,-2.0198,-2.0245,-2.027,-2.0295,-2.0328,-2.0371,-2.0416,-2.0464,-2.0477,-2.0501,-2.0528,-2.053,-2.0544,-2.0555,-2.0552,-2.0558,-2.056,-2.0543,-2.0544,-2.0544,-2.0545,0,0,-1.9993,-2.0079,-2.0084,-2.0112,-2.0174,-2.0204,-2.0237,-2.0285,-2.0305,-2.0347,-2.0376,-2.043,-2.0444,-2.0473,-2.0501,-2.0519,-2.0526,-2.0531,-2.0533,-2.0529,-2.0558,-2.0547,-2.0549,-2.0541,-2.0541,-2.0542,-2.0554,0,-2.0,-2.0062,-2.0103,-2.0148,-2.0184,-2.0223,-2.0252,-2.0292,-2.0324,-2.0358,-2.0393,-2.0431,-2.0446,-2.0464,-2.0483,-2.0521,-2.0532,-2.052,-2.0568,-2.0569,-2.0555,-2.0551,-2.054,-2.0549,-2.0556,-2.0557,-2.0557,0,-2.0016,-2.0058,-2.0107,-2.0167,-2.0183,-2.0208,-2.0256,-2.0288,-2.0335,-2.0357,-2.039,-2.0419,-2.0456,-2.0463,-2.0514,-2.0505,-2.0527,-2.0548,-2.0549,-2.0555,-2.0563,-2.0557,-2.0553,-2.0555,-2.0561,-2.056,-2.056,0,-1.999,-2.0059,-2.0098,-2.0121,-2.0191,-2.0208,-2.0237,-2.0285,-2.0311,-2.0353,-2.0371,-2.0415,-2.044,-2.0474,-2.0514,-2.0516,-2.056,-2.0571,-2.058,-2.0579,-2.0587,-2.0586,-2.0587,-2.0601,-2.0601,-2.0601,-2.0601,0,-1.9993,-2.0022,-2.0088,-2.0111,-2.0145,-2.0191,-2.0223,-2.0256,-2.0298,-2.0328,-2.0364,-2.0392,-2.0444,-2.0478,-2.0509,-2.0547,-2.0557,-2.0576,-2.0584,-2.0573,-2.0571,-2.0588,-2.0588,-2.0601,-2.0601,-2.0601,-2.0601,0,-1.997,-2.0015,-2.006,-2.0123,-2.014,-2.0161,-2.0215,-2.024,-2.0274,-2.0312,-2.0324,-2.0377,-2.0419,-2.0463,-2.052,-2.0541,-2.0577,-2.0588,-2.0561,-2.0566,-2.0572,-2.0571,-2.0584,-2.0588,-2.0598,-2.0598,-2.0598,0,-1.9969,-1.9993,-2.0058,-2.0082,-2.0111,-2.0149,-2.0177,-2.0223,-2.025,-2.0306,-2.0324,-2.0369,-2.0407,-2.0473,-2.0516,-2.056,-2.0572,-2.0574,-2.0579,-2.0567,-2.0573,-2.0571,-2.0574,-2.0572,-2.0571,-2.0571,-2.0571,0,-1.9963,-1.9984,-2.0024,-2.0071,-2.0103,-2.0142,-2.0183,-2.02,-2.0254,-2.0283,-2.0327,-2.0357,-2.0416,-2.046,-2.0509,-2.0539,-2.0564,-2.0569,-2.0574,-2.0562,-2.0546,-2.0556,-2.0557,-2.0569,-2.0569,-2.0569,-2.0569,-2.0569,-1.9951,-1.9974,-2.0025,-2.0067,-2.0103,-2.014,-2.0166,-2.0204,-2.0242,-2.0294,-2.0319,-2.0363,-2.041,-2.0479,-2.0509,-2.0543,-2.0551,-2.0557,-2.0558,-2.0559,-2.0557,-2.054,-2.0552,-2.0553,-2.0553,-2.0553,-2.0553,0,-1.9947,-1.9982,-2.0021,-2.0077,-2.011,-2.0132,-2.0178,-2.0204,-2.0243,-2.0286,-2.0323,-2.0374,-2.0417,-2.0465,-2.0511,-2.0529,-2.0542,-2.054,-2.0539,-2.0546,-2.0547,-2.0539,-2.0529,-2.0529,-2.0529,-2.0529,-2.0529,-2.0529,-1.9949,-1.999,-2.0017,-2.0075,-2.0109,-2.0154,-2.0178,-2.0213,-2.0247,-2.0302,-2.0339,-2.037,-2.0414,-2.0464,-2.0505,-2.0517,-2.0533,-2.0527,-2.0543,-2.0544,-2.0546,-2.0547,-2.054,-2.053,-2.053,-2.0539,-2.0539,-2.0539]}]]